Location: Équennes
(49.7375°N, 1.9622°E)
Time: 19:05:29
(UTC+00:00)

Cosmos 2278 - Pass Details

Date: 01 October 2023
Orbit: 838 x 853 km, 71.1° (Epoch: 08 December)

Event Time Altitude Azimuth Distance (km) Brightness Sun altitude
Rises 00:32:35 0° 333° (NNW) 3,428 7.4 -42.1°
Reaches altitude 10° 00:35:10 10° 340° (NNW) 2,490 6.6 -41.9°
Enters shadow 00:36:18 16° 345° (NNW) 2,104 6.2 -41.9°
